Regional Weather Roundup
Issued by NWS

Home | Current Version | Previous Version | Graphics & Text | Print | Product List | Glossary On
Versions: 1 2 3 4 5 6 7 8 9 10 11 12 13 14 15 16 17 18 19 20 21 22 23 24 25 26 27
000
ASUS45 KTFX 221410
RWRMT
MONTANA REGIONAL WEATHER ROUNDUP
NATIONAL WEATHER SERVICE GREAT FALLS MT
700 AM MST MON JAN 22 2018

NOTE: "FAIR" INDICATES FEW OR NO CLOUDS BELOW 12000 FEET WITH NO
SIGNIFICANT WEATHER AND/OR OBSTRUCTIONS TO VISIBILITY.

MTZ001>007-043-221500-
WEST OF THE DIVIDE

CITY           SKY/WX    TMP DP  RH WIND       PRES   REMARKS
KALISPELL      FAIR      20  19  96 NE3       30.04R
MISSOULA       MOCLDY    32  24  72 E8        30.08R WCI  25
BUTTE          CLOUDY    19  13  77 S3        30.05R
MULLAN PASS    SNOW      23  22  96 VRB5      29.98  VSB 1/2
ANACONDA         N/A     27  18  69 SW10      30.05R WCI  17
DEER LODGE       N/A     25  19  80 S5        30.06S
EUREKA           N/A     36  23  60 MISG      30.03R
HAMILTON         N/A     30  27  86 S13       30.08S WCI  20
PLAINS           N/A     32  26  78 CALM      30.07R
RONAN            N/A     34  28  80 SE7       30.07R WCI  28
$$

MTZ008-052>055-221500-
SOUTHWEST MONTANA

CITY           SKY/WX    TMP DP  RH WIND       PRES   REMARKS
BOZEMAN        CLOUDY    12   8  84 CALM      30.08
DILLON         CLOUDY    22  15  75 SW5       30.07S
ENNIS          CLOUDY    27  18  69 S14       30.13R WCI  15
W YELLOWSTONE  LGT SNOW  16  14  93 CALM      30.12S
THREE FORKS      N/A     19  14  81 CALM      30.06R
TWIN BRIDGES     N/A     25  14  62 CALM      30.07
$$

MTZ009-010-012-014-046-048-049-054-221500-
EAST SLOPES AND CENTRAL MONTANA

CITY           SKY/WX    TMP DP  RH WIND       PRES   REMARKS
CUT BANK       FAIR      31  17  56 W16G23    29.91R WCI  20
GREAT FALLS    FAIR      34  19  54 SW20G30   29.96R WCI  23
MALMSTROM AFB  FAIR      32  22  66 SW18      29.98R WCI  20
HELENA         MOCLDY   N/A N/A N/A CALM      30.06R
AUGUSTA        FAIR      31  19  62 W14       29.94R WCI  20
BOWMANS CRNR   FAIR      25  19  77 S13       29.96R WCI  14
CHOTEAU          N/A     27  19  74 VRB3      29.97R
CONRAD           N/A     30  22  72 SW14      29.96R WCI  19
FAIRFIELD      FAIR      29  21  71 S13       29.96R WCI  19
POWER          MOCLDY    28  20  71 SW17      29.95R WCI  16
RAYNESFORD     FAIR      36  18  48 SW28G39   29.96R WCI  23
ULM            MOCLDY    35  21  58 SW18      29.99R WCI  24
WHITE SULPHUR    N/A     27  14  59 SE13G21   30.01S WCI  16
$$

MTZ011-013-016-021-045-047-050-051-221500-
NORTH CENTRAL MONTANA

CITY           SKY/WX    TMP DP  RH WIND       PRES   REMARKS
HAVRE          FAIR      28  21  75 SW10      29.94R WCI  19
LEWISTOWN      CLOUDY    31  20  63 SW18      29.96R WCI  19
N BAR RANCH    CLOUDY    32  18  55 W16       29.94F WCI  21
CHINOOK          N/A     32  21  64 SW14      29.94R WCI  22
DENTON         MOCLDY    34  21  59 MISG      29.92R
GEYSER         FAIR      33  19  55 W18G29    29.96R WCI  22
GRASS RANGE    CLOUDY    32  19  57 NW14      29.92S WCI  22
STANFORD       MOCLDY    34  18  53 W22G35    29.94R WCI  22
WINIFRED       MOCLDY    32  20  63 W12       29.94  WCI  23
$$

MTZ017>020-022>027-061-062-221500-
NORTHEAST MONTANA

CITY           SKY/WX    TMP DP  RH WIND       PRES   REMARKS
GLASGOW        FAIR       8   5  87 SE8       29.96S WCI  -4
GLENDIVE       FAIR       8   5  87 S6        30.01R WCI  -2
JORDAN           N/A      2  -3  80 W5        29.96S
MALTA          MOCLDY     3   1  92 CALM      29.97R
SIDNEY         FAIR       6   3  87 SW7       30.03R WCI  -6
WOLF POINT     FOG       -1  -5  82 CALM      30.01R VSB 1/4
PLENTYWOOD       N/A     10   9  92 CALM      29.97F
POPLAR           N/A     -2  -8  78 CALM      30.01S
SCOBEY           N/A      2  -7  66 CALM      29.93
$$

MTZ028>42-056>058-221500-
SOUTHCENTRAL AND SOUTHEAST MONTANA

CITY           SKY/WX    TMP DP  RH WIND       PRES   REMARKS
BAKER          FAIR       7   4  87 CALM      29.99S
BILLINGS       FAIR      24  13  62 SW18      30.01S WCI  10
LIVINGSTON     FAIR      29  18  63 SW31G44   30.02R WCI  13
MILES CITY     FAIR       8   6  92 SE8       30.00S WCI  -4
BIG TIMBER     PTCLDY    28  16  59 W16G23    30.05R WCI  17
EKALAKA          N/A     22  11  62 S2        29.95R
FORSYTH          N/A     21  16  79 CALM      29.99S
HARLOWTON      MOCLDY    28  17  63 W12       30.01R WCI  18
LAUREL           N/A     25  14  63 SW7G15    30.05R WCI  17
$$

REGIONAL REPORTS...DAKOTAS

CITY           SKY/WX    TMP DP  RH WIND       PRES   REMARKS
WILLISTON      FAIR       5   1  83 CALM      30.02R
MINOT          FOG        9   6  88 N3        30.03R VSB 1/4
DICKINSON      FAIR      12   8  84 W6        29.96S WCI   3
BEACH          FAIR       9   7  92 SE3       30.01S
CROSBY         FAIR       9   7  92 S14       30.00S WCI  -8
TIOGA          FOG        0  -2  92 CALM      30.01R VSB 1/4
BISMARCK       FOG       19  17  92 W5        30.03S VSB 3/4
GRAND FORKS    CLOUDY    25  21  85 NE13      30.07S WCI  14
FARGO          CLOUDY    26  24  92 N14       30.02S WCI  14
BUFFALO SD       N/A     16  11  80 W10       29.91S WCI   4
RAPID CITY     FAIR      17  11  77 NW5       29.97S
$$

REGIONAL REPORTS...WYOMING/IDAHO/WASHINGTON

CITY           SKY/WX    TMP DP  RH WIND       PRES   REMARKS
GILLETTE       FAIR      18  10  71 W10       29.99R WCI   6
SHERIDAN       FAIR       9   2  73 S5        29.99S
BUFFALO WY     FAIR      22   1  40 W8        29.98S WCI  12
CODY           FAIR      23   9  55 N6        30.04R WCI  16
YELLOWSTONE LA   N/A      6   4  91 CALM      30.13F
IDAHO FALLS    CLOUDY    23  19  85 N6        30.21S WCI  16
SALMON         CLOUDY    23  20  88 CALM      30.16R
BOISE          CLOUDY    35  32  88 E14       30.17S WCI  26
SPOKANE        FAIR      32  31  96 S9        30.08R WCI  24
$$

REGIONAL REPORTS...ALBERTA

CITY           SKY/WX    TMP DP  RH WIND       PRES   REMARKS
CALGARY        PTCLDY    27  12  54 SW6       29.73S WCI  20
CARDSTON         N/A     34  14  44 W16G23      N/A  WCI  23
EDMONTON       CLOUDY    16  12  86 W10       29.75  WCI   3
FORT MCMURRAY  FLURRIES  10   7  85 E9        29.85R WCI  -2
HIGH LEVEL     FLURRIES   3   0  85 SE3       29.82R
LETHBRIDGE     PTCLDY    30  19  64 W14       29.85S WCI  20
LLOYDMINSTER   MOCLDY    19  18  93 SE12      29.71F WCI   7
MEDICINE HAT   MOCLDY    34  23  64 SW22G30   29.82R WCI  22
PEACE RIVER    MOCLDY    18  16  93 W6        29.73R WCI   9
PINCHER CREEK  CLEAR     32  18  55 W22G32    29.88R WCI  19
WATERTON GATE    N/A     34  14  44 SW26G41     N/A  WCI  21
$$

REGIONAL REPORTS...SASKATCHEWAN

CITY           SKY/WX    TMP DP  RH WIND       PRES   REMARKS
CORONACH         N/A      9   7  92 SE7         N/A  WCI  -3
CYPRESS HILLS    N/A     30  16  55 W9          N/A  WCI  22
ESTEVAN        CRYSTALS   5   1  85 E7        30.01R VSB 3/4 WCI  -7
MOOSE JAW        N/A     14  10  85 E5          N/A
PRINCE ALBERT  LGT SNOW   9   5  85 E10       29.95F FOG     WCI  -6
REGINA         PTCLDY     7   5  92 SE13      29.92F WCI  -9
ROCKGLEN         N/A     18  12  79 S13         N/A  WCI   4
SASKATOON      MOCLDY    18  16  93 SE9       29.83F WCI   6
SWIFT CURRENT  PTCLDY    25  16  68 SW15      29.80S WCI  12
VAL MARIE        N/A      5   1  85 CALM        N/A
$$




USA.gov is the U.S. government's official web portal to all federal, state and local government web resources and services.